This is the latest recevied weather packets stored in our database for station/object KG5TTF. If no packets are shown the sender has not sent any weather packets the latest 10 day(s).
| Time | Temp. | Humidity | Pressure | Rain* | Wind** | Luminosity | Snow |
|---|---|---|---|---|---|---|---|
| 1777856650 | 16.67° C | 26% | 1017.1 hPa | 0 mm | - | 22 W/m² | - |
| 1777856347 | 16.67° C | 25% | 1017.1 hPa | 0 mm | - | 21 W/m² | - |
| 1777856043 | 16.67° C | 25% | 1017.2 hPa | 0 mm | - | 20 W/m² | - |
| 1777855741 | 16.67° C | 25% | 1017 hPa | 0 mm | - | 23 W/m² | - |
| 1777855439 | 16.67° C | 25% | 1017.1 hPa | 0 mm | - | 29 W/m² | - |
| 1777855135 | 17.22° C | 25% | 1017 hPa | 0 mm | - | 43 W/m² | - |
| 1777854832 | 17.22° C | 25% | 1016.9 hPa | 0 mm | - | 54 W/m² | - |
| 1777854528 | 17.78° C | 23% | 1016.9 hPa | 0 mm | - | 66 W/m² | - |
| 1777854225 | 18.33° C | 21% | 1017 hPa | 0 mm | - | 78 W/m² | - |
| 1777853923 | 18.33° C | 20% | 1016.9 hPa | 0 mm | - | 87 W/m² | - |
| 1777853620 | 18.33° C | 18% | 1017 hPa | 0 mm | - | 96 W/m² | - |
| 1777853317 | 18.33° C | 19% | 1017 hPa | 0 mm | - | 106 W/m² | - |
| 1777853014 | 18.33° C | 18% | 1017.1 hPa | 0 mm | - | 106 W/m² | - |
| 1777852712 | 18.33° C | 18% | 1017 hPa | 0 mm | - | 111 W/m² | - |
| 1777852409 | 18.89° C | 18% | 1017 hPa | 0 mm | - | 101 W/m² | - |
| 1777852107 | 18.89° C | 18% | 1017.2 hPa | 0 mm | - | 110 W/m² | - |
| 1777851804 | 18.89° C | 18% | 1017 hPa | 0 mm | - | 112 W/m² | - |
| 1777851502 | 18.89° C | 18% | 1017 hPa | 0 mm | - | 120 W/m² | - |
| 1777851197 | 19.44° C | 18% | 1016.9 hPa | 0 mm | - | 133 W/m² | - |
| 1777850894 | 19.44° C | 16% | 1016.5 hPa | 0 mm | - | 149 W/m² | - |
| 1777850591 | 19.44° C | 16% | 1016.9 hPa | 0 mm | - | 156 W/m² | - |
| 1777850289 | 20° C | 16% | 1017 hPa | 0 mm | - | 165 W/m² | - |
| 1777849986 | 20.56° C | 16% | 1017 hPa | 0 mm | - | 269 W/m² | - |
| 1777849682 | 20.56° C | 15% | 1017.1 hPa | 0 mm | - | 195 W/m² | - |
| 1777849379 | 20.56° C | 18% | 1016.8 hPa | 0 mm | - | 200 W/m² | - |
* Rain latest hour (hover to see other rain measurements)
** Current wind speed in m/s (hover to see current wind gust speed)